Location: Lecco
(45.8566°N, 9.3977°E)
Time: 07:51:51
(UTC+02:00)

Altair - Pass Details

Date: 15 August 2020
Orbit: 1501 x 1682 km, 47.2° (Epoch: 25 September)

Event Time Altitude Azimuth Distance (km) Brightness Sun altitude
Rises 02:54:51 0° 232° (SW) 4,840 - -27.0°
Reaches altitude 10° 02:58:02 10° 230° (SW) 3,832 - -26.8°
Exits shadow 03:04:30 46° 211° (SSW) 2,042 7.6 -26.3°
Maximum altitude 03:07:36 65° 151° (SSE) 1,697 7.5 -26.0°
Drops below altitude 10° 03:16:49 10° 72° (ENE) 3,704 10.1 -25.3°
Sets 03:19:51 0° 70° (ENE) 4,671 10.8 -25.0°
